Weather History for LFML - July, 2013

Change the Weather History Date:

Tuesday, July 30, 2013

  Actual Average Record
Temperature  
Mean Temperature 78 °F -  
Max Temperature 87 °F 83 °F 96 °F (2001)
Min Temperature 69 °F 65 °F 60 °F (2011)
Cooling Degree Days 13    
Growing Degree Days 28 (Base 50)    
Moisture  
Dew Point 57 °F    
Average Humidity 49    
Maximum Humidity 69    
Minimum Humidity 29    
Precipitation  
Precipitation 0.00 in 0.04 in - ()
Sea Level Pressure  
Sea Level Pressure 30.11 in    
Wind  
Wind Speed 16 mph ()    
Max Wind Speed 28 mph    
Max Gust Speed -    
Visibility 6.2 miles    
Events      
Averages and records for this station are not official NWS values.
T = Trace of Precipitation, MM = Missing Value Source: Averaged Metar Reports

Daily Weather History Graph

Daily Weather History Graph

Search for Another Location

Airport or City:

Trip Planner

Search our weather history database for the weather conditions in past years. The results will help you decide how hot, cold, wet, or windy it might be!

Date:

Astronomy

Jul. 30, 2013 Rise Set
Actual Time 6:26 AM CEST 9:03 PM CEST
Civil Twilight 5:53 AM CEST 9:36 PM CEST
Nautical Twilight 5:12 AM CEST 10:17 PM CEST
Astronomical Twilight 4:25 AM CEST 11:03 PM CEST
Moon 12:37 AM CEST (7/30) 3:07 PM CEST (7/30)
Length of Visible Light 15h 42m
Length of Day
14h 37m
Last Quarter, 43% of the Moon is Illuminated
Jul 30
Last Quarter
Aug 6
New
Aug 14
First Quarter
Aug 21
Full
Aug 28
Last Quarter

Hourly Weather History & Observations

Time (CEST) Temp. Heat Index Dew Point Humidity Pressure Visibility Wind Dir Wind Speed Gust Speed Precip Events Conditions
12:00 AM 75.2 °F - 59.0 °F 57% 30.15 in - NNW 11.5 mph - N/A   Clear
12:30 AM 73.4 °F - 59.0 °F 61% 30.15 in - NW 11.5 mph - N/A   Clear
1:00 AM 73.4 °F - 59.0 °F 61% 30.15 in - NW 15.0 mph - N/A   Clear
1:30 AM 73.4 °F - 59.0 °F 61% 30.15 in 6.2 mi NW 13.8 mph - N/A   Unknown
2:00 AM 72 °F - 60 °F 56% 30.17 in 37 mi NW 12.7 mph - -   Clear
2:00 AM 71.6 °F - 59.0 °F 64% 30.15 in 6.2 mi NW 12.7 mph - N/A   Unknown
2:30 AM 71.6 °F - 59.0 °F 64% 30.15 in 6.2 mi NW 11.5 mph - N/A   Unknown
3:00 AM 71.6 °F - 60.8 °F 69% 30.15 in 6.2 mi NW 15.0 mph - N/A   Unknown
3:30 AM 71.6 °F - 59.0 °F 64% 30.15 in 6.2 mi NW 11.5 mph - N/A   Unknown
4:00 AM 71.6 °F - 59.0 °F 64% 30.15 in 6.2 mi NW 13.8 mph - N/A   Unknown
4:30 AM 71.6 °F - 59.0 °F 64% 30.15 in - NW 13.8 mph - N/A   Clear
5:00 AM 71.6 °F - 59.0 °F 64% 30.15 in - NW 13.8 mph - N/A   Clear
5:30 AM 71.6 °F - 59.0 °F 64% 30.12 in - NW 15.0 mph - N/A   Clear
6:00 AM 69.8 °F - 59.0 °F 68% 30.12 in - NW 15.0 mph - N/A   Clear
6:30 AM 69.8 °F - 59.0 °F 68% 30.12 in - NW 18.4 mph - N/A   Clear
7:00 AM 69.8 °F - 59.0 °F 68% 30.12 in - NW 21.9 mph - N/A   Clear
7:30 AM 69.8 °F - 59.0 °F 68% 30.12 in - NW 21.9 mph - N/A   Clear
8:00 AM 71 °F - 58 °F 54% 30.15 in 47 mi NW 18.4 mph - -   Clear
8:00 AM 71.6 °F - 59.0 °F 64% 30.12 in - NW 17.3 mph - N/A   Clear
8:30 AM 71.6 °F - 59.0 °F 64% 30.15 in - NW 17.3 mph - N/A   Clear
9:00 AM 73.4 °F - 59.0 °F 61% 30.15 in - NW 18.4 mph - N/A   Clear
10:00 AM 77.0 °F - 59.0 °F 54% 30.12 in - NW 23.0 mph - N/A   Clear
11:00 AM 78.8 °F - 57.2 °F 47% 30.12 in - NW 23.0 mph - N/A   Clear
11:30 AM 80.6 °F 80.8 °F 57.2 °F 45% 30.12 in - NW 21.9 mph - N/A   Clear
12:00 PM 80.6 °F 80.8 °F 57.2 °F 45% 30.12 in - NW 20.7 mph - N/A   Clear
12:30 PM 82.4 °F 82.0 °F 57.2 °F 42% 30.12 in - WNW 19.6 mph - N/A   Clear
1:00 PM 82.4 °F 82.0 °F 57.2 °F 42% 30.12 in - WNW 23.0 mph - N/A   Clear
1:30 PM 82.4 °F 82.0 °F 57.2 °F 42% 30.12 in - NW 19.6 mph - N/A   Clear
2:00 PM 85 °F - 57 °F 29% 30.13 in 47 mi WNW 20.7 mph - -  
2:00 PM 84.2 °F 83.5 °F 57.2 °F 40% 30.12 in - WNW 21.9 mph - N/A   Clear
2:30 PM 84.2 °F 83.5 °F 57.2 °F 40% 30.12 in - NW 24.2 mph - N/A   Clear
3:00 PM 86.0 °F 84.5 °F 55.4 °F 35% 30.09 in - NW 23.0 mph - N/A   Clear
3:30 PM 86.0 °F 84.2 °F 53.6 °F 33% 30.09 in - NW 23.0 mph - N/A   Clear
4:00 PM 86.0 °F 84.9 °F 57.2 °F 37% 30.09 in - NW 21.9 mph - N/A   Clear
4:30 PM 87.8 °F 86.1 °F 55.4 °F 33% 30.09 in - NW 25.3 mph - N/A   Clear
5:00 PM 86.0 °F 84.2 °F 53.6 °F 33% 30.06 in - NW 25.3 mph - N/A   Clear
5:30 PM 86.0 °F 84.9 °F 57.2 °F 37% 30.06 in - NW 24.2 mph - N/A   Clear
6:00 PM 86.0 °F 84.2 °F 53.6 °F 33% 30.06 in - NW 25.3 mph - N/A   Clear
6:30 PM 86.0 °F 84.2 °F 53.6 °F 33% 30.06 in - NW 27.6 mph - N/A   Clear
7:00 PM 86.0 °F 84.9 °F 57.2 °F 37% 30.06 in - NW 23.0 mph - N/A   Clear
7:30 PM 84.2 °F 83.0 °F 55.4 °F 37% 30.06 in - NW 21.9 mph - N/A   Clear
8:00 PM 84 °F - 57 °F 29% 30.07 in 37 mi NNW 18.4 mph - -  
8:00 PM 84.2 °F 83.5 °F 57.2 °F 40% 30.06 in - NW 20.7 mph - N/A   Clear
8:30 PM 82.4 °F 81.7 °F 55.4 °F 39% 30.06 in - NW 19.6 mph - N/A   Clear
9:00 PM 82.4 °F 81.7 °F 55.4 °F 39% 30.06 in - NNW 19.6 mph - N/A   Clear
9:30 PM 80.6 °F 80.5 °F 55.4 °F 42% 30.06 in - NW 23.0 mph - N/A   Clear
10:00 PM 80.6 °F 80.5 °F 55.4 °F 42% 30.06 in - NW 16.1 mph - N/A   Clear
11:00 PM 78.8 °F - 55.4 °F 44% 30.06 in - NW 10.4 mph - N/A   Clear
11:30 PM 78.8 °F - 53.6 °F 42% 30.06 in - NNW 6.9 mph - N/A   Clear